When you browse on this site, cookies collect data to enhance your experience and personalize the content and advertising you see.
Visit our Privacy Policy to learn more. By continuing to use the site, you agree to this use of cookies and data.
  • în România
  • Lista ţărilor
  • Pe 7 zile
  • Temperatura apei
  • Hartă satelitară
  • Meteo pe hartă
  • Widget-uri
  • user-avatar
    Intrare

    Meteo pe oră la Zayare

    Astăzi, 26 Martie, Marţi

    Timp Temperatura Precipitaţii Vânt Presiune Umiditate
    00:00 -4°C° 0 mm 6 m/s 748 mmHg 88%
    01:00 -5°C° 0 mm 5 m/s 749 mmHg 89%
    02:00 -5°C° 0 mm 5 m/s 749 mmHg 90%
    03:00 -5°C° 0 mm 4 m/s 750 mmHg 91%
    04:00 -5°C° 0 mm 3 m/s 751 mmHg 92%
    05:00 -6°C° 0 mm 3 m/s 751 mmHg 93%
    06:00 -7°C° 0 mm 3 m/s 752 mmHg 93%
    07:00 -5°C° 0 mm 3 m/s 752 mmHg 93%
    08:00 -4°C° 0 mm 4 m/s 753 mmHg 92%
    09:00 -2°C° 0 mm 4 m/s 753 mmHg 92%
    10:00 -2°C° 0 mm 4 m/s 753 mmHg 95%
    11:00 -2°C° 0 mm 4 m/s 754 mmHg 97%
    12:00 -2°C° 0 mm 4 m/s 754 mmHg 99%
    13:00 -2°C° 0 mm 4 m/s 754 mmHg 99%
    14:00 -1°C° 0 mm 4 m/s 754 mmHg 99%
    15:00 -1°C° 0 mm 4 m/s 754 mmHg 99%
    16:00 -1°C° 0.1 mm 5 m/s 754 mmHg 96%
    17:00 -1°C° 0.1 mm 5 m/s 753 mmHg 92%
    18:00 -2°C° 0.1 mm 6 m/s 753 mmHg 89%
    19:00 -2°C° 1.1 mm 6 m/s 753 mmHg 90%
    20:00 -1°C° 1.1 mm 7 m/s 752 mmHg 91%
    21:00 -1°C° 1.1 mm 7 m/s 752 mmHg 92%
    22:00 -1°C° 0.9 mm 7 m/s 752 mmHg 94%
    23:00 -1°C° 0.9 mm 6 m/s 752 mmHg 97%

    Mâine, 27 Martie, Miercuri

    Timp Temperatura Precipitaţii Vânt Presiune Umiditate
    00:00 -1°C° 0.9 mm 6 m/s 753 mmHg 99%
    01:00 0°C° 0.5 mm 5 m/s 753 mmHg 99%
    02:00 0°C° 0.5 mm 5 m/s 753 mmHg 99%
    03:00 0°C° 0.5 mm 4 m/s 754 mmHg 99%
    04:00 -1°C° 0.2 mm 4 m/s 754 mmHg 99%
    05:00 0°C° 0.2 mm 3 m/s 754 mmHg 99%
    06:00 0°C° 0.2 mm 3 m/s 754 mmHg 99%
    07:00 0°C° 0.6 mm 3 m/s 754 mmHg 99%
    08:00 0°C° 0.6 mm 3 m/s 754 mmHg 99%
    09:00 -1°C° 0.6 mm 4 m/s 755 mmHg 99%
    10:00 -1°C° 0.2 mm 4 m/s 755 mmHg 99%
    11:00 -1°C° 0.2 mm 4 m/s 755 mmHg 99%
    12:00 -1°C° 0.2 mm 4 m/s 755 mmHg 99%
    13:00 0°C° 0 mm 4 m/s 755 mmHg 99%
    14:00 0°C° 0 mm 4 m/s 755 mmHg 98%
    15:00 0°C° 0 mm 4 m/s 755 mmHg 98%
    16:00 0°C° 0 mm 4 m/s 755 mmHg 94%
    17:00 0°C° 0 mm 4 m/s 755 mmHg 90%
    18:00 -1°C° 0 mm 4 m/s 755 mmHg 86%
    19:00 0°C° 0 mm 3 m/s 755 mmHg 86%
    20:00 -1°C° 0 mm 3 m/s 755 mmHg 87%
    21:00 -1°C° 0 mm 3 m/s 755 mmHg 87%
    22:00 -1°C° 0 mm 3 m/s 755 mmHg 87%
    23:00 -1°C° 0 mm 3 m/s 755 mmHg 86%

    Poimâine, 28 Martie, Joi

    Timp Temperatura Precipitaţii Vânt Presiune Umiditate
    00:00 -1°C° 0 mm 3 m/s 754 mmHg 86%
    01:00 -2°C° 0 mm 3 m/s 754 mmHg 86%
    02:00 -2°C° 0 mm 3 m/s 754 mmHg 86%
    03:00 -3°C° 0 mm 2 m/s 754 mmHg 86%
    04:00 -3°C° 0 mm 2 m/s 754 mmHg 86%
    05:00 -3°C° 0 mm 2 m/s 754 mmHg 86%
    06:00 -3°C° 0 mm 2 m/s 753 mmHg 86%
    07:00 -3°C° 0 mm 2 m/s 753 mmHg 88%
    08:00 -2°C° 0 mm 2 m/s 753 mmHg 90%
    09:00 -1°C° 0 mm 2 m/s 753 mmHg 92%
    10:00 +1°C° 0 mm 2 m/s 753 mmHg 93%
    11:00 +1°C° 0 mm 2 m/s 753 mmHg 95%
    12:00 +1°C° 0 mm 2 m/s 753 mmHg 96%
    13:00 +2°C° 0 mm 1 m/s 753 mmHg 97%
    14:00 +2°C° 0 mm 1 m/s 752 mmHg 97%
    15:00 +2°C° 0 mm 1 m/s 752 mmHg 98%
    16:00 +2°C° 0.1 mm 1 m/s 752 mmHg 97%
    17:00 +1°C° 0.1 mm 2 m/s 752 mmHg 97%
    18:00 -1°C° 0.1 mm 2 m/s 752 mmHg 96%
    19:00 -1°C° 0.2 mm 2 m/s 751 mmHg 95%
    20:00 -1°C° 0.2 mm 2 m/s 751 mmHg 95%
    21:00 -1°C° 0.2 mm 2 m/s 751 mmHg 94%
    22:00 -1°C° 0.4 mm 2 m/s 751 mmHg 94%
    23:00 -1°C° 0.4 mm 2 m/s 750 mmHg 94%

    29 Martie, Vineri

    Timp Temperatura Precipitaţii Vânt Presiune Umiditate
    00:00 -1°C° 0.4 mm 2 m/s 750 mmHg 95%
    01:00 -2°C° 1.7 mm 2 m/s 750 mmHg 96%
    02:00 -2°C° 1.7 mm 2 m/s 750 mmHg 96%
    03:00 -2°C° 1.7 mm 2 m/s 750 mmHg 97%
    04:00 -2°C° 0.7 mm 2 m/s 750 mmHg 97%
    05:00 -2°C° 0.7 mm 2 m/s 749 mmHg 97%
    06:00 -2°C° 0.7 mm 2 m/s 749 mmHg 97%
    07:00 -2°C° 0.1 mm 2 m/s 750 mmHg 97%
    08:00 -1°C° 0.1 mm 2 m/s 750 mmHg 98%
    09:00 -1°C° 0.1 mm 2 m/s 750 mmHg 99%
    10:00 -1°C° 0.3 mm 2 m/s 750 mmHg 99%
    11:00 -1°C° 0.3 mm 2 m/s 750 mmHg 99%
    12:00 -1°C° 0.3 mm 2 m/s 750 mmHg 99%
    13:00 -1°C° 0.8 mm 3 m/s 751 mmHg 98%
    14:00 -2°C° 0.8 mm 4 m/s 751 mmHg 97%
    15:00 -2°C° 0.8 mm 5 m/s 751 mmHg 96%
    16:00 -2°C° 0.7 mm 5 m/s 751 mmHg 94%
    17:00 -3°C° 0.7 mm 6 m/s 751 mmHg 93%
    18:00 -3°C° 0.7 mm 6 m/s 751 mmHg 92%
    19:00 -3°C° 0.5 mm 6 m/s 752 mmHg 90%
    20:00 -3°C° 0.5 mm 7 m/s 752 mmHg 89%
    21:00 -4°C° 0.5 mm 7 m/s 753 mmHg 88%
    22:00 -4°C° 0.1 mm 6 m/s 753 mmHg 88%
    23:00 -5°C° 0.1 mm 5 m/s 753 mmHg 88%

    30 Martie, Sâmbătă

    Timp Temperatura Precipitaţii Vânt Presiune Umiditate
    00:00 -6°C° 0.1 mm 5 m/s 753 mmHg 88%
    01:00 -5°C° 0 mm 4 m/s 754 mmHg 90%
    02:00 -7°C° 0 mm 4 m/s 754 mmHg 91%
    03:00 -7°C° 0 mm 3 m/s 754 mmHg 92%
    04:00 -7°C° 0 mm 3 m/s 754 mmHg 93%
    05:00 -7°C° 0 mm 3 m/s 755 mmHg 94%
    06:00 -7°C° 0 mm 3 m/s 755 mmHg 95%
    07:00 -7°C° 0 mm 4 m/s 755 mmHg 95%
    08:00 -5°C° 0 mm 4 m/s 755 mmHg 94%
    09:00 -3°C° 0 mm 4 m/s 755 mmHg 94%
    10:00 -4°C° 0 mm 5 m/s 755 mmHg 95%
    11:00 -2°C° 0 mm 5 m/s 755 mmHg 96%
    12:00 -2°C° 0 mm 5 m/s 755 mmHg 97%
    13:00 -2°C° 0.1 mm 5 m/s 754 mmHg 97%
    14:00 -1°C° 0.1 mm 5 m/s 754 mmHg 98%
    15:00 -1°C° 0.1 mm 5 m/s 754 mmHg 98%
    16:00 -1°C° 0 mm 5 m/s 754 mmHg 97%
    17:00 -1°C° 0 mm 5 m/s 753 mmHg 96%
    18:00 -1°C° 0 mm 5 m/s 753 mmHg 96%
    19:00 -1°C° 0 mm 4 m/s 754 mmHg 96%
    20:00 -1°C° 0 mm 4 m/s 754 mmHg 96%
    21:00 -1°C° 0 mm 4 m/s 754 mmHg 97%
    22:00 -1°C° 0 mm 4 m/s 754 mmHg 97%
    23:00 -1°C° 0 mm 4 m/s 754 mmHg 97%

    31 Martie, Duminică

    Timp Temperatura Precipitaţii Vânt Presiune Umiditate
    00:00 -1°C° 0 mm 4 m/s 754 mmHg 97%
    01:00 -1°C° 0 mm 4 m/s 754 mmHg 96%
    02:00 -1°C° 0 mm 4 m/s 754 mmHg 96%
    03:00 -1°C° 0 mm 4 m/s 754 mmHg 96%
    04:00 -1°C° 0 mm 4 m/s 754 mmHg 96%
    05:00 -1°C° 0 mm 4 m/s 754 mmHg 96%
    06:00 -1°C° 0 mm 4 m/s 754 mmHg 96%
    07:00 0°C° 0 mm 3 m/s 755 mmHg 97%
    08:00 0°C° 0 mm 3 m/s 755 mmHg 98%
    09:00 +1°C° 0 mm 3 m/s 755 mmHg 98%
    10:00 +1°C° 0 mm 3 m/s 755 mmHg 98%
    11:00 +1°C° 0 mm 3 m/s 755 mmHg 98%
    12:00 +1°C° 0 mm 3 m/s 755 mmHg 98%
    13:00 +1°C° 0 mm 3 m/s 755 mmHg 98%
    14:00 +1°C° 0 mm 3 m/s 755 mmHg 98%
    15:00 +1°C° 0 mm 3 m/s 755 mmHg 97%
    16:00 +1°C° 0 mm 3 m/s 755 mmHg 97%
    17:00 +1°C° 0 mm 3 m/s 755 mmHg 97%
    18:00 +1°C° 0 mm 3 m/s 755 mmHg 97%
    19:00 +1°C° 0 mm 3 m/s 755 mmHg 97%
    20:00 +1°C° 0 mm 3 m/s 756 mmHg 97%
    21:00 0°C° 0 mm 4 m/s 756 mmHg 97%
    22:00 0°C° 0 mm 4 m/s 756 mmHg 97%
    23:00 0°C° 0 mm 4 m/s 756 mmHg 97%
    Arată mai mult